Datum;Grugatrasse Ruettenscheid_West;Grugatrasse Ruhr_Ost;Huyssenallee Ruettenscheid_Sued;Huyssenallee Stadtkern_Nord
01.10.2018 00:00;1;0;1;1
01.10.2018 01:00;0;0;0;0
01.10.2018 02:00;0;0;0;0
01.10.2018 03:00;0;0;0;0
01.10.2018 04:00;0;1;0;2
01.10.2018 05:00;10;2;3;4
01.10.2018 06:00;42;14;11;23
01.10.2018 07:00;77;35;13;53
01.10.2018 08:00;53;23;16;72
01.10.2018 09:00;36;24;11;35
01.10.2018 10:00;28;24;10;15
01.10.2018 11:00;26;34;12;21
01.10.2018 12:00;28;25;17;10
01.10.2018 13:00;25;23;17;8
01.10.2018 14:00;14;25;15;10
01.10.2018 15:00;21;41;32;21
01.10.2018 16:00;28;51;41;23
01.10.2018 17:00;31;54;38;23
01.10.2018 18:00;22;41;26;16
01.10.2018 19:00;15;26;20;16
01.10.2018 20:00;4;10;15;7
01.10.2018 21:00;2;2;2;1
01.10.2018 22:00;1;3;1;4
01.10.2018 23:00;1;0;1;2
02.10.2018 00:00;1;1;0;0
02.10.2018 01:00;0;0;3;0
02.10.2018 02:00;0;0;0;0
02.10.2018 03:00;0;0;0;0
02.10.2018 04:00;0;0;0;0
02.10.2018 05:00;7;3;4;4
02.10.2018 06:00;30;12;13;23
02.10.2018 07:00;47;18;10;43
02.10.2018 08:00;36;16;9;39
02.10.2018 09:00;14;11;7;28
02.10.2018 10:00;8;13;5;8
02.10.2018 11:00;12;6;6;11
02.10.2018 12:00;7;10;7;8
02.10.2018 13:00;19;13;19;10
02.10.2018 14:00;15;15;12;7
02.10.2018 15:00;20;29;14;17
02.10.2018 16:00;12;42;19;18
02.10.2018 17:00;30;34;45;28
02.10.2018 18:00;19;34;24;10
02.10.2018 19:00;12;14;23;9
02.10.2018 20:00;3;4;9;7
02.10.2018 21:00;2;4;10;1
02.10.2018 22:00;0;4;6;3
02.10.2018 23:00;0;1;5;5
03.10.2018 00:00;0;1;0;2
03.10.2018 01:00;1;1;2;4
03.10.2018 02:00;0;0;0;1
03.10.2018 03:00;0;0;1;0
03.10.2018 04:00;2;2;1;2
03.10.2018 05:00;0;0;1;2
03.10.2018 06:00;0;1;1;1
03.10.2018 07:00;4;4;1;2
03.10.2018 08:00;16;11;1;7
03.10.2018 09:00;17;21;4;12
03.10.2018 10:00;50;60;4;14
03.10.2018 11:00;64;48;6;22
03.10.2018 12:00;76;103;5;9
03.10.2018 13:00;74;89;9;11
03.10.2018 14:00;101;96;16;17
03.10.2018 15:00;99;74;13;20
03.10.2018 16:00;76;51;11;23
03.10.2018 17:00;79;63;18;16
03.10.2018 18:00;49;35;11;15
03.10.2018 19:00;18;18;9;4
03.10.2018 20:00;6;2;7;10
03.10.2018 21:00;5;1;7;8
03.10.2018 22:00;1;3;10;4
03.10.2018 23:00;1;1;3;2
04.10.2018 00:00;0;1;2;0
04.10.2018 01:00;0;0;0;0
04.10.2018 02:00;0;1;0;0
04.10.2018 03:00;0;0;0;0
04.10.2018 04:00;1;1;0;2
04.10.2018 05:00;10;1;3;4
04.10.2018 06:00;43;15;9;31
04.10.2018 07:00;71;43;13;63
04.10.2018 08:00;54;22;20;58
04.10.2018 09:00;21;19;16;35
04.10.2018 10:00;26;28;5;19
04.10.2018 11:00;20;31;0;26
04.10.2018 12:00;33;36;0;19
04.10.2018 13:00;23;34;0;16
04.10.2018 14:00;40;49;18;21
04.10.2018 15:00;47;72;35;33
04.10.2018 16:00;69;72;44;42
04.10.2018 17:00;80;90;59;41
04.10.2018 18:00;84;82;40;36
04.10.2018 19:00;29;36;30;8
04.10.2018 20:00;11;5;13;7
04.10.2018 21:00;12;9;13;6
04.10.2018 22:00;10;7;9;4
04.10.2018 23:00;2;2;2;2
05.10.2018 00:00;0;0;2;1
05.10.2018 01:00;0;0;1;2
05.10.2018 02:00;0;0;0;0
05.10.2018 03:00;0;0;0;0
05.10.2018 04:00;1;1;0;1
05.10.2018 05:00;10;3;3;6
05.10.2018 06:00;41;12;8;23
05.10.2018 07:00;68;46;17;64
05.10.2018 08:00;65;34;13;57
05.10.2018 09:00;35;29;11;45
05.10.2018 10:00;47;53;18;26
05.10.2018 11:00;73;93;20;28
05.10.2018 12:00;82;90;20;32
05.10.2018 13:00;86;89;38;29
05.10.2018 14:00;107;113;51;28
05.10.2018 15:00;97;128;49;43
05.10.2018 16:00;103;133;40;33
05.10.2018 17:00;79;87;43;29
05.10.2018 18:00;67;61;30;25
05.10.2018 19:00;42;32;25;13
05.10.2018 20:00;13;7;16;8
05.10.2018 21:00;8;4;10;8
05.10.2018 22:00;9;9;9;3
05.10.2018 23:00;4;1;10;6
06.10.2018 00:00;1;1;3;2
06.10.2018 01:00;1;1;2;2
06.10.2018 02:00;2;0;1;1
06.10.2018 03:00;1;0;0;3
06.10.2018 04:00;4;0;0;1
06.10.2018 05:00;1;0;0;1
06.10.2018 06:00;2;2;1;0
06.10.2018 07:00;5;4;1;7
06.10.2018 08:00;15;17;3;15
06.10.2018 09:00;29;50;8;20
06.10.2018 10:00;81;90;4;13
06.10.2018 11:00;155;152;12;35
06.10.2018 12:00;152;165;15;35
06.10.2018 13:00;134;206;29;39
06.10.2018 14:00;193;177;36;36
06.10.2018 15:00;199;153;17;27
06.10.2018 16:00;165;117;26;28
06.10.2018 17:00;149;92;25;39
06.10.2018 18:00;99;74;25;26
06.10.2018 19:00;50;25;16;10
06.10.2018 20:00;9;9;8;12
06.10.2018 21:00;9;5;6;7
06.10.2018 22:00;4;7;9;7
06.10.2018 23:00;3;7;3;6
07.10.2018 00:00;2;0;6;2
07.10.2018 01:00;3;0;1;6
07.10.2018 02:00;0;1;1;2
07.10.2018 03:00;1;0;0;1
07.10.2018 04:00;1;0;0;0
07.10.2018 05:00;1;0;1;2
07.10.2018 06:00;1;0;0;0
07.10.2018 07:00;2;0;0;4
07.10.2018 08:00;4;13;3;6
07.10.2018 09:00;17;19;2;6
07.10.2018 10:00;31;24;1;12
07.10.2018 11:00;51;53;5;14
07.10.2018 12:00;66;73;11;13
07.10.2018 13:00;79;82;14;20
07.10.2018 14:00;82;135;18;9
07.10.2018 15:00;109;102;12;30
07.10.2018 16:00;114;78;11;28
07.10.2018 17:00;86;47;20;31
07.10.2018 18:00;49;40;24;17
07.10.2018 19:00;16;7;11;6
07.10.2018 20:00;3;3;9;6
07.10.2018 21:00;0;3;6;2
07.10.2018 22:00;0;5;1;1
07.10.2018 23:00;2;2;1;1
08.10.2018 00:00;0;0;0;0
08.10.2018 01:00;0;0;0;0
08.10.2018 02:00;0;0;0;0
08.10.2018 03:00;0;0;0;0
08.10.2018 04:00;1;1;0;5
08.10.2018 05:00;6;1;4;5
08.10.2018 06:00;48;19;13;21
08.10.2018 07:00;76;41;17;57
08.10.2018 08:00;64;32;17;73
08.10.2018 09:00;30;26;15;31
08.10.2018 10:00;32;38;14;21
08.10.2018 11:00;38;43;16;24
08.10.2018 12:00;31;45;23;19
08.10.2018 13:00;50;54;23;17
08.10.2018 14:00;46;64;29;11
08.10.2018 15:00;69;85;32;27
08.10.2018 16:00;83;88;50;29
08.10.2018 17:00;65;75;55;41
08.10.2018 18:00;49;61;59;21
08.10.2018 19:00;27;35;38;13
08.10.2018 20:00;8;10;18;12
08.10.2018 21:00;6;5;8;5
08.10.2018 22:00;2;3;4;4
08.10.2018 23:00;0;1;1;0
09.10.2018 00:00;0;0;1;1
09.10.2018 01:00;0;0;1;1
09.10.2018 02:00;0;0;0;2
09.10.2018 03:00;0;0;0;0
09.10.2018 04:00;0;1;0;1
09.10.2018 05:00;9;1;4;5
09.10.2018 06:00;46;19;16;32
09.10.2018 07:00;72;45;18;74
09.10.2018 08:00;83;32;22;90
09.10.2018 09:00;31;35;14;34
09.10.2018 10:00;43;62;12;28
09.10.2018 11:00;50;50;11;19
09.10.2018 12:00;49;70;17;22
09.10.2018 13:00;76;66;30;18
09.10.2018 14:00;64;83;21;19
09.10.2018 15:00;74;109;41;28
09.10.2018 16:00;94;109;61;45
09.10.2018 17:00;99;134;69;45
09.10.2018 18:00;78;98;55;39
09.10.2018 19:00;32;30;42;15
09.10.2018 20:00;16;13;23;7
09.10.2018 21:00;17;6;17;7
09.10.2018 22:00;2;3;9;5
09.10.2018 23:00;0;0;4;1
10.10.2018 00:00;0;0;1;4
10.10.2018 01:00;0;0;1;0
10.10.2018 02:00;0;0;0;2
10.10.2018 03:00;0;0;1;0
10.10.2018 04:00;0;1;0;3
10.10.2018 05:00;9;1;5;8
10.10.2018 06:00;57;20;15;25
10.10.2018 07:00;80;44;19;62
10.10.2018 08:00;72;38;17;92
10.10.2018 09:00;48;33;14;39
10.10.2018 10:00;48;57;18;26
10.10.2018 11:00;57;69;35;19
10.10.2018 12:00;67;74;22;20
10.10.2018 13:00;62;72;25;25
10.10.2018 14:00;80;90;28;38
10.10.2018 15:00;114;115;49;31
10.10.2018 16:00;104;119;49;31
10.10.2018 17:00;129;144;52;40
10.10.2018 18:00;87;96;49;40
10.10.2018 19:00;55;37;31;18
10.10.2018 20:00;18;19;25;11
10.10.2018 21:00;7;6;11;6
10.10.2018 22:00;5;7;8;7
10.10.2018 23:00;2;1;3;4
11.10.2018 00:00;0;0;1;2
11.10.2018 01:00;0;0;0;1
11.10.2018 02:00;0;0;0;0
11.10.2018 03:00;0;0;1;0
11.10.2018 04:00;0;2;1;2
11.10.2018 05:00;9;1;4;7
11.10.2018 06:00;51;20;14;27
11.10.2018 07:00;76;39;15;65
11.10.2018 08:00;91;37;27;94
11.10.2018 09:00;41;33;11;29
11.10.2018 10:00;61;81;20;21
11.10.2018 11:00;62;76;25;37
11.10.2018 12:00;72;59;22;23
11.10.2018 13:00;72;88;31;24
11.10.2018 14:00;90;99;27;30
11.10.2018 15:00;96;113;53;29
11.10.2018 16:00;103;110;45;34
11.10.2018 17:00;83;111;66;40
11.10.2018 18:00;62;93;37;46
11.10.2018 19:00;36;34;30;17
11.10.2018 20:00;9;11;22;14
11.10.2018 21:00;16;5;15;7
11.10.2018 22:00;4;1;4;8
11.10.2018 23:00;1;1;10;4
12.10.2018 00:00;2;0;3;0
12.10.2018 01:00;0;1;0;1
12.10.2018 02:00;0;2;1;0
12.10.2018 03:00;0;1;1;1
12.10.2018 04:00;0;2;1;3
12.10.2018 05:00;9;1;1;5
12.10.2018 06:00;53;17;10;26
12.10.2018 07:00;71;46;18;63
12.10.2018 08:00;70;44;21;64
12.10.2018 09:00;34;31;4;49
12.10.2018 10:00;60;49;10;24
12.10.2018 11:00;65;55;13;32
12.10.2018 12:00;57;72;37;17
12.10.2018 13:00;71;75;36;22
12.10.2018 14:00;85;86;35;33
12.10.2018 15:00;93;111;40;34
12.10.2018 16:00;87;110;46;33
12.10.2018 17:00;106;108;47;40
12.10.2018 18:00;85;61;34;33
12.10.2018 19:00;43;27;61;28
12.10.2018 20:00;10;10;12;14
12.10.2018 21:00;3;10;20;11
12.10.2018 22:00;6;13;14;5
12.10.2018 23:00;2;5;8;5
13.10.2018 00:00;3;2;5;4
13.10.2018 01:00;2;1;7;2
13.10.2018 02:00;0;3;2;1
13.10.2018 03:00;0;0;1;1
13.10.2018 04:00;1;1;0;3
13.10.2018 05:00;4;0;0;3
13.10.2018 06:00;5;5;1;5
13.10.2018 07:00;7;7;4;5
13.10.2018 08:00;13;12;4;12
13.10.2018 09:00;27;65;5;18
13.10.2018 10:00;95;107;10;11
13.10.2018 11:00;147;192;10;25
13.10.2018 12:00;163;165;23;43
13.10.2018 13:00;129;189;37;39
13.10.2018 14:00;136;180;17;31
13.10.2018 15:00;176;162;29;25
13.10.2018 16:00;172;114;34;24
13.10.2018 17:00;193;79;28;18
13.10.2018 18:00;94;41;26;28
13.10.2018 19:00;48;25;12;18
13.10.2018 20:00;11;7;9;11
13.10.2018 21:00;2;11;7;7
13.10.2018 22:00;5;4;12;10
13.10.2018 23:00;4;5;2;4
14.10.2018 00:00;1;0;6;7
14.10.2018 01:00;2;1;2;3
14.10.2018 02:00;0;0;2;4
14.10.2018 03:00;0;0;1;0
14.10.2018 04:00;0;0;0;4
14.10.2018 05:00;3;1;1;0
14.10.2018 06:00;4;5;3;4
14.10.2018 07:00;3;5;0;5
14.10.2018 08:00;14;13;1;3
14.10.2018 09:00;27;40;4;7
14.10.2018 10:00;68;98;5;15
14.10.2018 11:00;120;163;19;16
14.10.2018 12:00;140;160;24;14
14.10.2018 13:00;144;180;17;24
14.10.2018 14:00;155;203;20;28
14.10.2018 15:00;183;92;14;28
14.10.2018 16:00;147;112;16;22
14.10.2018 17:00;150;72;18;24
14.10.2018 18:00;98;56;7;29
14.10.2018 19:00;21;24;11;14
14.10.2018 20:00;4;11;7;7
14.10.2018 21:00;3;3;7;6
14.10.2018 22:00;1;3;2;3
14.10.2018 23:00;0;1;2;3
15.10.2018 00:00;0;0;1;0
15.10.2018 01:00;0;0;0;0
15.10.2018 02:00;0;0;0;1
15.10.2018 03:00;0;0;0;1
15.10.2018 04:00;2;1;0;1
15.10.2018 05:00;6;4;3;6
15.10.2018 06:00;48;16;11;22
15.10.2018 07:00;65;30;11;61
15.10.2018 08:00;79;37;19;67
15.10.2018 09:00;37;28;15;39
15.10.2018 10:00;39;53;7;22
15.10.2018 11:00;53;54;16;30
15.10.2018 12:00;46;49;20;21
15.10.2018 13:00;64;62;23;22
15.10.2018 14:00;87;87;28;28
15.10.2018 15:00;77;93;47;31
15.10.2018 16:00;95;136;48;26
15.10.2018 17:00;92;141;51;26
15.10.2018 18:00;108;91;43;29
15.10.2018 19:00;36;32;35;15
15.10.2018 20:00;11;12;13;15
15.10.2018 21:00;5;8;5;6
15.10.2018 22:00;6;6;6;2
15.10.2018 23:00;1;1;1;3
16.10.2018 00:00;0;0;2;0
16.10.2018 01:00;0;0;0;0
16.10.2018 02:00;1;0;0;0
16.10.2018 03:00;0;1;0;1
16.10.2018 04:00;1;1;2;1
16.10.2018 05:00;8;2;2;6
16.10.2018 06:00;46;21;13;20
16.10.2018 07:00;88;28;15;54
16.10.2018 08:00;69;30;17;74
16.10.2018 09:00;58;37;11;50
16.10.2018 10:00;62;64;7;20
16.10.2018 11:00;74;73;21;23
16.10.2018 12:00;50;88;15;16
16.10.2018 13:00;66;60;28;28
16.10.2018 14:00;77;91;31;20
16.10.2018 15:00;114;113;32;36
16.10.2018 16:00;106;110;49;35
16.10.2018 17:00;108;145;93;51
16.10.2018 18:00;85;83;46;27
16.10.2018 19:00;29;28;36;19
16.10.2018 20:00;11;11;17;7
16.10.2018 21:00;2;6;11;10
16.10.2018 22:00;7;7;11;4
16.10.2018 23:00;2;0;5;1
17.10.2018 00:00;0;0;2;1
17.10.2018 01:00;2;0;0;1
17.10.2018 02:00;0;0;0;0
17.10.2018 03:00;0;0;0;0
17.10.2018 04:00;1;1;0;2
17.10.2018 05:00;5;1;4;3
17.10.2018 06:00;49;18;10;31
17.10.2018 07:00;73;31;17;51
17.10.2018 08:00;71;30;20;95
17.10.2018 09:00;51;22;12;36
17.10.2018 10:00;61;72;13;32
17.10.2018 11:00;70;77;17;23
17.10.2018 12:00;58;74;18;28
17.10.2018 13:00;71;71;32;35
17.10.2018 14:00;65;82;31;21
17.10.2018 15:00;110;90;45;24
17.10.2018 16:00;117;138;47;29
17.10.2018 17:00;87;119;46;44
17.10.2018 18:00;92;75;36;28
17.10.2018 19:00;37;26;27;26
17.10.2018 20:00;11;7;19;11
17.10.2018 21:00;7;10;16;3
17.10.2018 22:00;2;6;8;3
17.10.2018 23:00;0;0;4;1
18.10.2018 00:00;0;0;3;0
18.10.2018 01:00;0;0;0;0
18.10.2018 02:00;1;0;0;0
18.10.2018 03:00;0;0;0;1
18.10.2018 04:00;0;0;1;1
18.10.2018 05:00;9;2;2;5
18.10.2018 06:00;39;19;9;23
18.10.2018 07:00;67;29;21;64
18.10.2018 08:00;64;29;15;57
18.10.2018 09:00;38;31;7;35
18.10.2018 10:00;31;26;8;23
18.10.2018 11:00;36;32;15;23
18.10.2018 12:00;41;47;21;18
18.10.2018 13:00;38;41;24;24
18.10.2018 14:00;36;38;11;28
18.10.2018 15:00;49;70;33;30
18.10.2018 16:00;54;66;43;28
18.10.2018 17:00;61;82;39;39
18.10.2018 18:00;34;64;30;15
18.10.2018 19:00;28;30;30;7
18.10.2018 20:00;19;8;13;6
18.10.2018 21:00;7;3;4;1
18.10.2018 22:00;1;3;5;3
18.10.2018 23:00;3;2;6;2
19.10.2018 00:00;1;0;3;0
19.10.2018 01:00;1;0;0;0
19.10.2018 02:00;0;0;0;1
19.10.2018 03:00;1;0;0;0
19.10.2018 04:00;1;0;0;1
19.10.2018 05:00;8;1;0;5
19.10.2018 06:00;31;12;12;18
19.10.2018 07:00;47;29;9;46
19.10.2018 08:00;34;17;12;53
19.10.2018 09:00;30;25;8;39
19.10.2018 10:00;41;35;11;26
19.10.2018 11:00;26;31;12;17
19.10.2018 12:00;45;44;19;12
19.10.2018 13:00;29;44;23;19
19.10.2018 14:00;52;77;27;10
19.10.2018 15:00;81;88;43;27
19.10.2018 16:00;76;84;36;23
19.10.2018 17:00;58;61;30;25
19.10.2018 18:00;52;46;33;16
19.10.2018 19:00;24;17;15;19
19.10.2018 20:00;7;12;9;7
19.10.2018 21:00;8;7;16;4
19.10.2018 22:00;3;2;2;5
19.10.2018 23:00;2;1;3;1
20.10.2018 00:00;2;2;5;8
20.10.2018 01:00;0;2;1;2
20.10.2018 02:00;1;0;1;2
20.10.2018 03:00;0;0;0;0
20.10.2018 04:00;0;0;0;0
20.10.2018 05:00;2;1;0;0
20.10.2018 06:00;2;4;1;3
20.10.2018 07:00;2;1;1;4
20.10.2018 08:00;4;9;4;7
20.10.2018 09:00;21;31;3;14
20.10.2018 10:00;48;48;11;15
20.10.2018 11:00;59;43;15;15
20.10.2018 12:00;87;68;17;22
20.10.2018 13:00;71;99;12;30
20.10.2018 14:00;77;95;20;22
20.10.2018 15:00;79;97;20;26
20.10.2018 16:00;103;53;19;27
20.10.2018 17:00;73;46;24;15
20.10.2018 18:00;32;24;13;10
20.10.2018 19:00;8;9;6;8
20.10.2018 20:00;9;2;11;6
20.10.2018 21:00;5;1;5;3
20.10.2018 22:00;2;0;6;6
20.10.2018 23:00;4;0;2;2
21.10.2018 00:00;3;0;3;1
21.10.2018 01:00;2;0;2;2
21.10.2018 02:00;0;0;5;2
21.10.2018 03:00;0;0;0;1
21.10.2018 04:00;0;0;0;0
21.10.2018 05:00;2;0;0;0
21.10.2018 06:00;0;2;0;4
21.10.2018 07:00;2;1;1;4
21.10.2018 08:00;9;16;0;8
21.10.2018 09:00;19;28;2;5
21.10.2018 10:00;51;61;5;5
21.10.2018 11:00;86;116;9;11
21.10.2018 12:00;89;116;11;12
21.10.2018 13:00;123;146;14;20
21.10.2018 14:00;157;132;11;22
21.10.2018 15:00;127;109;18;16
21.10.2018 16:00;119;87;23;23
21.10.2018 17:00;124;54;18;19
21.10.2018 18:00;33;27;9;19
21.10.2018 19:00;5;4;6;10
21.10.2018 20:00;2;4;12;9
21.10.2018 21:00;2;1;5;5
21.10.2018 22:00;0;1;1;0
21.10.2018 23:00;0;2;3;3
22.10.2018 00:00;1;0;1;1
22.10.2018 01:00;0;0;0;1
22.10.2018 02:00;0;0;0;0
22.10.2018 03:00;0;0;0;1
22.10.2018 04:00;0;0;0;2
22.10.2018 05:00;7;1;3;4
22.10.2018 06:00;32;8;4;16
22.10.2018 07:00;55;29;9;45
22.10.2018 08:00;40;18;13;45
22.10.2018 09:00;13;11;8;19
22.10.2018 10:00;6;5;3;6
22.10.2018 11:00;9;8;3;11
22.10.2018 12:00;11;12;8;12
22.10.2018 13:00;27;22;12;11
22.10.2018 14:00;16;23;12;12
22.10.2018 15:00;28;49;17;21
22.10.2018 16:00;31;65;37;21
22.10.2018 17:00;44;56;39;21
22.10.2018 18:00;32;30;31;23
22.10.2018 19:00;20;21;22;13
22.10.2018 20:00;6;7;8;3
22.10.2018 21:00;3;2;6;4
22.10.2018 22:00;2;4;11;5
22.10.2018 23:00;2;1;1;2
23.10.2018 00:00;0;0;1;0
23.10.2018 01:00;0;0;0;0
23.10.2018 02:00;0;2;3;0
23.10.2018 03:00;0;0;0;0
23.10.2018 04:00;1;1;0;0
23.10.2018 05:00;9;0;2;5
23.10.2018 06:00;36;11;6;23
23.10.2018 07:00;47;17;15;50
23.10.2018 08:00;45;18;17;74
23.10.2018 09:00;34;24;5;25
23.10.2018 10:00;11;10;8;10
23.10.2018 11:00;20;37;5;16
23.10.2018 12:00;18;13;10;22
23.10.2018 13:00;27;23;17;8
23.10.2018 14:00;24;23;9;10
23.10.2018 15:00;18;44;28;18
23.10.2018 16:00;34;46;37;15
23.10.2018 17:00;33;51;45;34
23.10.2018 18:00;15;36;32;18
23.10.2018 19:00;10;14;12;8
23.10.2018 20:00;2;1;19;7
23.10.2018 21:00;3;7;6;4
23.10.2018 22:00;1;2;3;5
23.10.2018 23:00;0;0;0;0
24.10.2018 00:00;0;0;1;0
24.10.2018 01:00;0;0;2;0
24.10.2018 02:00;0;2;0;0
24.10.2018 03:00;0;0;0;0
24.10.2018 04:00;1;0;0;1
24.10.2018 05:00;9;0;3;8
24.10.2018 06:00;28;8;7;14
24.10.2018 07:00;29;18;9;26
24.10.2018 08:00;23;9;7;29
24.10.2018 09:00;14;14;8;24
24.10.2018 10:00;6;37;5;11
24.10.2018 11:00;7;9;7;16
24.10.2018 12:00;13;8;11;13
24.10.2018 13:00;20;19;16;15
24.10.2018 14:00;13;12;8;7
24.10.2018 15:00;37;41;15;18
24.10.2018 16:00;24;46;19;18
24.10.2018 17:00;23;37;20;18
24.10.2018 18:00;20;19;20;22
24.10.2018 19:00;8;11;13;5
24.10.2018 20:00;7;3;13;8
24.10.2018 21:00;1;3;5;4
24.10.2018 22:00;0;2;4;3
24.10.2018 23:00;0;0;4;1
25.10.2018 00:00;0;0;3;1
25.10.2018 01:00;0;0;0;0
25.10.2018 02:00;0;0;1;0
25.10.2018 03:00;0;0;0;1
25.10.2018 04:00;1;0;1;0
25.10.2018 05:00;6;0;2;7
25.10.2018 06:00;37;11;6;17
25.10.2018 07:00;50;16;15;39
25.10.2018 08:00;21;20;8;60
25.10.2018 09:00;26;23;7;27
25.10.2018 10:00;33;20;10;14
25.10.2018 11:00;23;15;10;9
25.10.2018 12:00;23;22;11;19
25.10.2018 13:00;24;23;18;19
25.10.2018 14:00;17;44;17;26
25.10.2018 15:00;28;44;30;16
25.10.2018 16:00;51;58;36;18
25.10.2018 17:00;40;63;39;34
25.10.2018 18:00;20;35;22;14
25.10.2018 19:00;12;18;23;23
25.10.2018 20:00;7;4;9;7
25.10.2018 21:00;10;10;13;9
25.10.2018 22:00;1;0;5;2
25.10.2018 23:00;1;0;6;2
26.10.2018 00:00;1;0;1;3
26.10.2018 01:00;0;0;0;0
26.10.2018 02:00;0;0;1;1
26.10.2018 03:00;0;0;0;1
26.10.2018 04:00;1;0;0;1
26.10.2018 05:00;5;0;3;3
26.10.2018 06:00;29;8;4;13
26.10.2018 07:00;39;17;6;38
26.10.2018 08:00;34;23;9;39
26.10.2018 09:00;22;19;9;25
26.10.2018 10:00;29;19;8;16
26.10.2018 11:00;24;15;5;14
26.10.2018 12:00;10;27;9;20
26.10.2018 13:00;26;17;20;18
26.10.2018 14:00;29;44;24;17
26.10.2018 15:00;30;50;27;13
26.10.2018 16:00;23;38;30;10
26.10.2018 17:00;20;35;29;22
26.10.2018 18:00;18;20;13;11
26.10.2018 19:00;3;12;7;19
26.10.2018 20:00;3;1;8;2
26.10.2018 21:00;4;2;4;3
26.10.2018 22:00;2;1;0;4
26.10.2018 23:00;0;0;4;2
27.10.2018 00:00;0;1;4;2
27.10.2018 01:00;0;0;3;1
27.10.2018 02:00;0;0;1;0
27.10.2018 03:00;0;0;0;2
27.10.2018 04:00;1;0;0;0
27.10.2018 05:00;1;0;4;1
27.10.2018 06:00;3;3;3;0
27.10.2018 07:00;2;3;2;8
27.10.2018 08:00;3;10;3;8
27.10.2018 09:00;25;21;3;11
27.10.2018 10:00;49;42;9;12
27.10.2018 11:00;35;36;8;17
27.10.2018 12:00;51;58;15;17
27.10.2018 13:00;43;51;17;21
27.10.2018 14:00;46;70;19;27
27.10.2018 15:00;44;57;16;27
27.10.2018 16:00;44;29;13;15
27.10.2018 17:00;31;24;19;17
27.10.2018 18:00;27;20;8;12
27.10.2018 19:00;7;13;9;23
27.10.2018 20:00;5;3;13;8
27.10.2018 21:00;7;1;4;1
27.10.2018 22:00;0;1;5;1
27.10.2018 23:00;0;2;0;1
28.10.2018 00:00;0;2;2;4
28.10.2018 01:00;1;1;1;4
28.10.2018 02:00;0;0;4;0
28.10.2018 03:00;0;0;1;0
28.10.2018 04:00;0;0;0;2
28.10.2018 05:00;1;0;2;1
28.10.2018 06:00;3;4;1;1
28.10.2018 07:00;3;4;1;5
28.10.2018 08:00;7;10;1;2
28.10.2018 09:00;15;20;2;5
28.10.2018 10:00;20;27;5;3
28.10.2018 11:00;45;35;7;10
28.10.2018 12:00;43;41;7;10
28.10.2018 13:00;52;26;8;12
28.10.2018 14:00;39;21;5;12
28.10.2018 15:00;32;17;4;11
28.10.2018 16:00;23;12;5;7
28.10.2018 17:00;20;14;7;9
28.10.2018 18:00;7;14;2;3
28.10.2018 19:00;3;2;4;10
28.10.2018 20:00;0;2;5;6
28.10.2018 21:00;3;0;2;4
28.10.2018 22:00;0;1;2;0
28.10.2018 23:00;2;0;2;0
29.10.2018 00:00;1;0;1;0
29.10.2018 01:00;0;0;1;0
29.10.2018 02:00;0;0;0;0
29.10.2018 03:00;0;0;0;0
29.10.2018 04:00;0;0;0;0
29.10.2018 05:00;13;2;4;7
29.10.2018 06:00;47;11;13;27
29.10.2018 07:00;68;33;18;61
29.10.2018 08:00;57;19;11;59
29.10.2018 09:00;17;21;15;24
29.10.2018 10:00;17;16;11;15
29.10.2018 11:00;18;20;9;17
29.10.2018 12:00;18;16;13;10
29.10.2018 13:00;25;33;25;20
29.10.2018 14:00;26;34;26;11
29.10.2018 15:00;30;49;30;24
29.10.2018 16:00;32;60;42;15
29.10.2018 17:00;20;60;49;24
29.10.2018 18:00;23;32;39;21
29.10.2018 19:00;9;15;17;8
29.10.2018 20:00;4;14;15;11
29.10.2018 21:00;5;4;6;3
29.10.2018 22:00;1;0;6;2
29.10.2018 23:00;0;0;2;1
30.10.2018 00:00;0;0;2;0
30.10.2018 01:00;0;0;1;0
30.10.2018 02:00;0;0;1;0
30.10.2018 03:00;0;0;0;0
30.10.2018 04:00;0;0;0;0
30.10.2018 05:00;6;3;2;4
30.10.2018 06:00;28;6;12;18
30.10.2018 07:00;41;35;13;52
30.10.2018 08:00;40;10;17;44
30.10.2018 09:00;8;9;12;29
30.10.2018 10:00;12;11;9;17
30.10.2018 11:00;14;13;11;11
30.10.2018 12:00;6;11;14;8
30.10.2018 13:00;22;14;11;14
30.10.2018 14:00;20;18;18;7
30.10.2018 15:00;19;39;20;15
30.10.2018 16:00;21;26;23;15
30.10.2018 17:00;9;21;35;24
30.10.2018 18:00;4;15;13;12
30.10.2018 19:00;6;9;11;6
30.10.2018 20:00;0;3;9;3
30.10.2018 21:00;0;2;6;4
30.10.2018 22:00;2;1;4;1
30.10.2018 23:00;0;2;3;0
31.10.2018 00:00;0;0;0;0
31.10.2018 01:00;0;0;2;0
31.10.2018 02:00;0;0;0;0
31.10.2018 03:00;0;0;0;1
31.10.2018 04:00;0;0;1;1
31.10.2018 05:00;10;1;4;3
31.10.2018 06:00;45;13;10;13
31.10.2018 07:00;74;39;7;59
31.10.2018 08:00;60;29;13;53
31.10.2018 09:00;27;23;8;32
31.10.2018 10:00;21;39;17;22
31.10.2018 11:00;30;24;19;19
31.10.2018 12:00;35;38;24;19
31.10.2018 13:00;47;48;14;12
31.10.2018 14:00;47;53;25;27
31.10.2018 15:00;41;59;28;23
31.10.2018 16:00;50;90;40;22
31.10.2018 17:00;28;53;30;26
31.10.2018 18:00;15;29;23;20
31.10.2018 19:00;11;14;16;16
31.10.2018 20:00;4;8;23;6
31.10.2018 21:00;7;4;7;5
31.10.2018 22:00;0;1;3;3
31.10.2018 23:00;2;5;3;4
01.11.2018 00:00;0;1;1;2
01.11.2018 01:00;0;4;3;0
01.11.2018 02:00;0;1;2;3
01.11.2018 03:00;0;0;0;5
01.11.2018 04:00;0;0;2;2
01.11.2018 05:00;1;1;4;5
01.11.2018 06:00;4;1;1;0
01.11.2018 07:00;1;0;4;4
01.11.2018 08:00;4;10;0;5
01.11.2018 09:00;22;38;2;3
01.11.2018 10:00;47;64;5;9
01.11.2018 11:00;48;72;10;12
01.11.2018 12:00;63;64;10;13
01.11.2018 13:00;83;40;14;15
01.11.2018 14:00;46;57;6;9
01.11.2018 15:00;46;31;9;5
01.11.2018 16:00;20;3;2;8
01.11.2018 17:00;17;5;2;7
01.11.2018 18:00;4;4;4;3
01.11.2018 19:00;0;7;9;5
01.11.2018 20:00;0;1;4;3
01.11.2018 21:00;2;1;3;1
01.11.2018 22:00;0;1;0;5
01.11.2018 23:00;2;0;4;0
02.11.2018 00:00;0;0;0;0
02.11.2018 01:00;0;0;0;0
02.11.2018 02:00;0;0;0;0
02.11.2018 03:00;0;0;0;1
02.11.2018 04:00;1;0;1;0
02.11.2018 05:00;2;0;0;2
02.11.2018 06:00;25;4;8;2
02.11.2018 07:00;23;17;5;22
02.11.2018 08:00;35;25;5;35
02.11.2018 09:00;20;15;10;16
02.11.2018 10:00;22;22;7;17
02.11.2018 11:00;29;28;14;22
02.11.2018 12:00;32;28;21;11
02.11.2018 13:00;52;48;24;17
02.11.2018 14:00;39;56;21;23
02.11.2018 15:00;47;56;13;14
02.11.2018 16:00;44;54;21;20
02.11.2018 17:00;43;39;25;18
02.11.2018 18:00;11;15;10;24
02.11.2018 19:00;8;10;14;15
02.11.2018 20:00;5;4;18;9
02.11.2018 21:00;8;1;6;6
02.11.2018 22:00;2;4;8;3
02.11.2018 23:00;1;0;4;4
03.11.2018 00:00;1;4;2;2
03.11.2018 01:00;0;2;5;5
03.11.2018 02:00;0;3;1;1
03.11.2018 03:00;0;0;0;0
03.11.2018 04:00;1;0;0;1
03.11.2018 05:00;1;0;0;4
03.11.2018 06:00;1;1;1;3
03.11.2018 07:00;2;1;2;2
03.11.2018 08:00;9;19;2;11
03.11.2018 09:00;15;29;5;11
03.11.2018 10:00;44;34;10;25
03.11.2018 11:00;39;61;16;16
03.11.2018 12:00;69;57;25;27
03.11.2018 13:00;59;64;22;31
03.11.2018 14:00;59;73;20;22
03.11.2018 15:00;34;60;21;20
03.11.2018 16:00;53;35;19;12
03.11.2018 17:00;30;19;14;18
03.11.2018 18:00;6;7;16;13
03.11.2018 19:00;2;3;10;8
03.11.2018 20:00;1;3;6;5
03.11.2018 21:00;3;7;2;2
03.11.2018 22:00;1;2;9;4
03.11.2018 23:00;2;1;4;1
04.11.2018 00:00;1;1;2;2
04.11.2018 01:00;1;1;2;2
04.11.2018 02:00;0;1;1;0
04.11.2018 03:00;0;0;0;0
04.11.2018 04:00;1;0;0;0
04.11.2018 05:00;2;0;1;0
04.11.2018 06:00;0;0;1;1
04.11.2018 07:00;0;3;2;1
04.11.2018 08:00;3;7;1;5
04.11.2018 09:00;15;28;1;9
04.11.2018 10:00;35;50;2;15
04.11.2018 11:00;69;55;6;9
04.11.2018 12:00;71;48;7;15
04.11.2018 13:00;70;68;8;21
04.11.2018 14:00;60;52;15;15
04.11.2018 15:00;70;50;12;24
04.11.2018 16:00;55;44;12;14
04.11.2018 17:00;33;19;12;23
04.11.2018 18:00;7;9;14;8
04.11.2018 19:00;5;2;7;16
04.11.2018 20:00;1;5;10;4
04.11.2018 21:00;4;7;7;3
04.11.2018 22:00;0;1;4;2
04.11.2018 23:00;1;2;1;0
05.11.2018 00:00;1;0;1;0
05.11.2018 01:00;1;0;0;0
05.11.2018 02:00;0;0;0;0
05.11.2018 03:00;0;0;1;0
05.11.2018 04:00;1;1;0;2
05.11.2018 05:00;15;3;4;6
05.11.2018 06:00;41;13;16;30
05.11.2018 07:00;74;35;15;58